Wetterdaten: Samstag, 17.07.2010
Datum Zeit Temp. A. Feuchte A. Luftdruck Regen Wind Richtung Richtung Sonnenschein UV Solar Windben
17.07.2010 00:00 21,6 C 66 % 1013,5 hPa 0,0 mm 0,0 km/h (0 Bft) W-NW 292 0 min 0 UV-I 0 W/m 1,6 km/h (1 Bft)
17.07.2010 00:10 21,3 C 68 % 1013,6 hPa 0,0 mm 0,0 km/h (0 Bft) W-NW 292 0 min 0 UV-I 0 W/m 3,2 km/h (1 Bft)
17.07.2010 00:20 21,8 C 66 % 1014,3 hPa 0,0 mm 3,2 km/h (1 Bft) W-SW 247 0 min 0 UV-I 0 W/m 19,3 km/h (3 Bft)
17.07.2010 00:30 22,2 C 66 % 1014,5 hPa 0,0 mm 3,2 km/h (1 Bft) W 270 0 min 0 UV-I 0 W/m 14,5 km/h (3 Bft)
17.07.2010 00:40 22,1 C 67 % 1014,7 hPa 0,0 mm 4,8 km/h (1 Bft) W-NW 292 0 min 0 UV-I 0 W/m 17,7 km/h (3 Bft)
17.07.2010 00:50 21,8 C 68 % 1015,3 hPa 0,0 mm 4,8 km/h (1 Bft) W-NW 292 0 min 0 UV-I 0 W/m 24,1 km/h (4 Bft)
17.07.2010 01:00 21,6 C 68 % 1015,8 hPa 0,0 mm 4,8 km/h (1 Bft) W 270 0 min 0 UV-I 0 W/m 16,1 km/h (3 Bft)
17.07.2010 01:10 21,5 C 68 % 1016,9 hPa 0,0 mm 8,0 km/h (2 Bft) W-SW 247 0 min 0 UV-I 0 W/m 20,9 km/h (4 Bft)
17.07.2010 01:20 21,2 C 70 % 1017,4 hPa 0,0 mm 9,7 km/h (2 Bft) W 270 0 min 0 UV-I 0 W/m 29,0 km/h (5 Bft)
17.07.2010 01:30 20,9 C 71 % 1017,2 hPa 0,0 mm 9,7 km/h (2 Bft) W 270 0 min 0 UV-I 0 W/m 25,7 km/h (4 Bft)
17.07.2010 01:40 20,6 C 72 % 1016,7 hPa 0,0 mm 6,4 km/h (2 Bft) W 270 0 min 0 UV-I 0 W/m 25,7 km/h (4 Bft)
17.07.2010 01:50 20,3 C 74 % 1016,7 hPa 0,0 mm 4,8 km/h (1 Bft) W-NW 292 0 min 0 UV-I 0 W/m 20,9 km/h (4 Bft)
17.07.2010 02:00 19,9 C 76 % 1016,4 hPa 0,0 mm 3,2 km/h (1 Bft) N-NW 337 0 min 0 UV-I 0 W/m 12,9 km/h (3 Bft)
17.07.2010 02:10 19,7 C 77 % 1016,7 hPa 0,0 mm 1,6 km/h (1 Bft) N-NW 337 0 min 0 UV-I 0 W/m 6,4 km/h (2 Bft)
17.07.2010 02:20 19,4 C 78 % 1016,1 hPa 0,0 mm 1,6 km/h (1 Bft) NW 315 0 min 0 UV-I 0 W/m 9,7 km/h (2 Bft)
17.07.2010 02:30 19,3 C 80 % 1015,7 hPa 0,0 mm 1,6 km/h (1 Bft) N 360 0 min 0 UV-I 0 W/m 6,4 km/h (2 Bft)
17.07.2010 02:40 19,2 C 80 % 1015,8 hPa 0,0 mm 0,0 km/h (0 Bft) N 360 0 min 0 UV-I 0 W/m 4,8 km/h (1 Bft)
17.07.2010 02:50 19,1 C 81 % 1016,1 hPa 0,0 mm 0,0 km/h (0 Bft) O-NO 67 0 min 0 UV-I 0 W/m 3,2 km/h (1 Bft)
17.07.2010 03:00 18,9 C 81 % 1016,1 hPa 0,0 mm 0,0 km/h (0 Bft) O-NO 67 0 min 0 UV-I 0 W/m 4,8 km/h (1 Bft)
17.07.2010 03:10 18,8 C 81 % 1016,1 hPa 0,0 mm 0,0 km/h (0 Bft) O-NO 67 0 min 0 UV-I 0 W/m 3,2 km/h (1 Bft)
17.07.2010 03:20 18,8 C 82 % 1015,7 hPa 0,0 mm 0,0 km/h (0 Bft) NO 45 0 min 0 UV-I 0 W/m 3,2 km/h (1 Bft)
17.07.2010 03:30 18,6 C 82 % 1015,5 hPa 0,0 mm 0,0 km/h (0 Bft) NO 45 0 min 0 UV-I 0 W/m 3,2 km/h (1 Bft)
17.07.2010 03:40 18,6 C 82 % 1015,5 hPa 0,0 mm 0,0 km/h (0 Bft) NO 45 0 min 0 UV-I 0 W/m 1,6 km/h (1 Bft)
17.07.2010 03:50 18,6 C 82 % 1015,8 hPa 0,0 mm 0,0 km/h (0 Bft) NO 45 0 min 0 UV-I 0 W/m 1,6 km/h (1 Bft)
17.07.2010 04:00 18,4 C 83 % 1015,6 hPa 0,0 mm 0,0 km/h (0 Bft) NO 45 0 min 0 UV-I 0 W/m 1,6 km/h (1 Bft)
17.07.2010 04:10 18,3 C 83 % 1015,4 hPa 0,0 mm 0,0 km/h (0 Bft) NO 45 0 min 0 UV-I 0 W/m 1,6 km/h (1 Bft)
17.07.2010 04:20 18,2 C 84 % 1015,4 hPa 0,0 mm 0,0 km/h (0 Bft) N 0 0 min 0 UV-I 0 W/m 0,0 km/h (0 Bft)
17.07.2010 04:30 18,1 C 84 % 1015,7 hPa 0,0 mm 0,0 km/h (0 Bft) NO 45 0 min 0 UV-I 0 W/m 1,6 km/h (1 Bft)
17.07.2010 04:40 18,0 C 85 % 1015,8 hPa 0,0 mm 0,0 km/h (0 Bft) NO 45 0 min 0 UV-I 0 W/m 1,6 km/h (1 Bft)
17.07.2010 04:50 17,9 C 85 % 1015,7 hPa 0,0 mm 0,0 km/h (0 Bft) NO 45 0 min 0 UV-I 0 W/m 1,6 km/h (1 Bft)
17.07.2010 05:00 17,8 C 85 % 1015,4 hPa 0,0 mm 0,0 km/h (0 Bft) NO 45 0 min 0 UV-I 0 W/m 1,6 km/h (1 Bft)
17.07.2010 05:10 17,8 C 85 % 1015,3 hPa 0,0 mm 0,0 km/h (0 Bft) NO 45 0 min 0 UV-I 0 W/m 1,6 km/h (1 Bft)
17.07.2010 05:20 17,6 C 85 % 1015,8 hPa 0,0 mm 0,0 km/h (0 Bft) NO 45 0 min 0 UV-I 0 W/m 4,8 km/h (1 Bft)
17.07.2010 05:30 17,5 C 86 % 1016,0 hPa 0,0 mm 0,0 km/h (0 Bft) S 180 0 min 0 UV-I 0 W/m 3,2 km/h (1 Bft)
17.07.2010 05:40 17,4 C 86 % 1015,6 hPa 0,0 mm 0,0 km/h (0 Bft) S 180 0 min 0 UV-I 0 W/m 3,2 km/h (1 Bft)
17.07.2010 05:50 17,5 C 86 % 1015,8 hPa 0,0 mm 0,2 km/h (0 Bft) S-SW 192 0 min 0 UV-I 2 W/m 3,2 km/h (1 Bft)
17.07.2010 06:00 17,7 C 85 % 1015,9 hPa 0,0 mm 0,2 km/h (0 Bft) S 187 0 min 0 UV-I 10 W/m 3,2 km/h (1 Bft)
17.07.2010 06:10 17,6 C 85 % 1015,7 hPa 0,0 mm 0,0 km/h (0 Bft) S 187 0 min 0 UV-I 21 W/m 1,6 km/h (1 Bft)
17.07.2010 06:20 17,8 C 85 % 1015,8 hPa 0,0 mm 0,0 km/h (0 Bft) S 187 0 min 0 UV-I 33 W/m 1,6 km/h (1 Bft)
17.07.2010 06:30 17,9 C 84 % 1015,8 hPa 0,0 mm 0,0 km/h (0 Bft) S 180 0 min 0 UV-I 67 W/m 1,6 km/h (1 Bft)
17.07.2010 06:40 18,1 C 83 % 1015,8 hPa 0,0 mm 0,0 km/h (0 Bft) S 180 0 min 0 UV-I 65 W/m 1,6 km/h (1 Bft)
17.07.2010 06:50 18,2 C 82 % 1015,8 hPa 0,0 mm 0,0 km/h (0 Bft) S 180 0 min 0 UV-I 53 W/m 1,6 km/h (1 Bft)
17.07.2010 07:00 18,4 C 83 % 1016,2 hPa 0,0 mm 0,0 km/h (0 Bft) S 180 0 min 0 UV-I 88 W/m 3,2 km/h (1 Bft)
17.07.2010 07:10 18,7 C 82 % 1016,2 hPa 0,0 mm 0,0 km/h (0 Bft) S 180 0 min 0 UV-I 95 W/m 3,2 km/h (1 Bft)
17.07.2010 07:20 18,8 C 82 % 1016,1 hPa 0,0 mm 0,0 km/h (0 Bft) N 0 0 min 0 UV-I 109 W/m 0,0 km/h (0 Bft)
17.07.2010 07:30 18,9 C 81 % 1016,2 hPa 0,0 mm 0,0 km/h (0 Bft) S 180 0 min 1 UV-I 76 W/m 1,6 km/h (1 Bft)
17.07.2010 07:40 19,0 C 81 % 1016,4 hPa 0,0 mm 0,0 km/h (0 Bft) S 180 0 min 1 UV-I 90 W/m 3,2 km/h (1 Bft)
17.07.2010 07:50 19,1 C 81 % 1016,4 hPa 0,0 mm 0,0 km/h (0 Bft) S 180 0 min 1 UV-I 90 W/m 3,2 km/h (1 Bft)
17.07.2010 08:00 19,1 C 80 % 1016,6 hPa 0,0 mm 0,0 km/h (0 Bft) S 179 0 min 1 UV-I 70 W/m 0,0 km/h (0 Bft)
17.07.2010 08:10 19,2 C 80 % 1016,6 hPa 0,0 mm 0,0 km/h (0 Bft) S 180 0 min 1 UV-I 120 W/m 1,6 km/h (1 Bft)
17.07.2010 08:20 19,5 C 80 % 1016,4 hPa 0,0 mm 0,0 km/h (0 Bft) S 180 0 min 1 UV-I 156 W/m 1,6 km/h (1 Bft)
17.07.2010 08:30 19,7 C 79 % 1016,4 hPa 0,0 mm 0,0 km/h (0 Bft) S 180 0 min 1 UV-I 169 W/m 1,6 km/h (1 Bft)
17.07.2010 08:40 19,8 C 78 % 1016,2 hPa 0,0 mm 0,0 km/h (0 Bft) S 180 0 min 1 UV-I 149 W/m 1,6 km/h (1 Bft)
17.07.2010 08:50 19,9 C 78 % 1016,5 hPa 0,0 mm 0,0 km/h (0 Bft) S 180 0 min 1 UV-I 141 W/m 3,2 km/h (1 Bft)
17.07.2010 09:00 19,8 C 77 % 1016,5 hPa 0,0 mm 0,0 km/h (0 Bft) S 180 0 min 1 UV-I 121 W/m 3,2 km/h (1 Bft)
17.07.2010 09:10 19,8 C 78 % 1016,7 hPa 0,0 mm 0,0 km/h (0 Bft) S 180 0 min 1 UV-I 95 W/m 1,6 km/h (1 Bft)
17.07.2010 09:20 19,7 C 78 % 1016,9 hPa 0,0 mm 0,0 km/h (0 Bft) W 270 0 min 1 UV-I 65 W/m 8,0 km/h (2 Bft)
17.07.2010 09:30 19,7 C 79 % 1017,1 hPa 0,0 mm 1,6 km/h (1 Bft) W 270 0 min 1 UV-I 130 W/m 6,4 km/h (2 Bft)
17.07.2010 09:40 19,7 C 79 % 1017,0 hPa 0,0 mm 3,2 km/h (1 Bft) W 270 0 min 1 UV-I 162 W/m 9,7 km/h (2 Bft)
17.07.2010 09:50 19,7 C 79 % 1017,0 hPa 0,0 mm 3,2 km/h (1 Bft) W-SW 247 0 min 2 UV-I 174 W/m 9,7 km/h (2 Bft)
17.07.2010 10:00 19,6 C 80 % 1017,0 hPa 0,0 mm 1,6 km/h (1 Bft) W 270 0 min 1 UV-I 162 W/m 8,0 km/h (2 Bft)
17.07.2010 10:10 19,7 C 80 % 1017,2 hPa 0,0 mm 1,6 km/h (1 Bft) W 270 0 min 1 UV-I 123 W/m 9,7 km/h (2 Bft)
17.07.2010 10:20 19,8 C 80 % 1017,1 hPa 0,0 mm 1,6 km/h (1 Bft) SW 225 0 min 1 UV-I 153 W/m 8,0 km/h (2 Bft)
17.07.2010 10:30 19,8 C 80 % 1017,4 hPa 0,0 mm 1,6 km/h (1 Bft) W 270 0 min 2 UV-I 211 W/m 8,0 km/h (2 Bft)
17.07.2010 10:40 19,8 C 81 % 1017,1 hPa 0,0 mm 1,6 km/h (1 Bft) W-SW 247 0 min 2 UV-I 192 W/m 8,0 km/h (2 Bft)
17.07.2010 10:50 19,7 C 81 % 1017,2 hPa 0,0 mm 3,2 km/h (1 Bft) W 270 0 min 1 UV-I 171 W/m 9,7 km/h (2 Bft)
17.07.2010 11:00 19,9 C 81 % 1017,2 hPa 0,0 mm 1,6 km/h (1 Bft) W 270 0 min 2 UV-I 211 W/m 11,3 km/h (2 Bft)
17.07.2010 11:10 19,9 C 81 % 1017,2 hPa 0,0 mm 3,2 km/h (1 Bft) W 270 0 min 2 UV-I 278 W/m 9,7 km/h (2 Bft)
17.07.2010 11:20 20,1 C 81 % 1017,3 hPa 0,0 mm 3,2 km/h (1 Bft) W 270 0 min 2 UV-I 253 W/m 9,7 km/h (2 Bft)
17.07.2010 11:30 20,3 C 78 % 1017,4 hPa 0,0 mm 3,2 km/h (1 Bft) W 270 0 min 2 UV-I 236 W/m 9,7 km/h (2 Bft)
17.07.2010 11:40 20,3 C 78 % 1017,4 hPa 0,0 mm 4,8 km/h (1 Bft) W 270 0 min 2 UV-I 197 W/m 11,3 km/h (2 Bft)
17.07.2010 11:50 20,3 C 80 % 1017,2 hPa 0,0 mm 3,2 km/h (1 Bft) W 270 0 min 3 UV-I 285 W/m 12,9 km/h (3 Bft)
17.07.2010 12:00 20,4 C 78 % 1017,3 hPa 0,0 mm 3,2 km/h (1 Bft) W-NW 292 0 min 2 UV-I 214 W/m 9,7 km/h (2 Bft)
17.07.2010 12:10 20,7 C 77 % 1017,5 hPa 0,0 mm 3,2 km/h (1 Bft) W 270 0 min 3 UV-I 297 W/m 11,3 km/h (2 Bft)
17.07.2010 12:20 20,7 C 73 % 1017,5 hPa 0,0 mm 4,8 km/h (1 Bft) W 270 0 min 3 UV-I 397 W/m 12,9 km/h (3 Bft)
17.07.2010 12:30 21,4 C 72 % 1017,5 hPa 0,0 mm 4,8 km/h (1 Bft) W 270 10 min 5 UV-I 570 W/m 11,3 km/h (2 Bft)
17.07.2010 12:40 21,2 C 69 % 1017,6 hPa 0,0 mm 4,8 km/h (1 Bft) W 270 10 min 4 UV-I 476 W/m 14,5 km/h (3 Bft)
17.07.2010 12:50 21,2 C 67 % 1017,6 hPa 0,0 mm 4,8 km/h (1 Bft) W 270 0 min 3 UV-I 290 W/m 16,1 km/h (3 Bft)
17.07.2010 13:00 21,8 C 66 % 1017,6 hPa 0,0 mm 6,4 km/h (2 Bft) W 270 10 min 8 UV-I 1141 W/m 17,7 km/h (3 Bft)
17.07.2010 13:10 22,2 C 61 % 1017,4 hPa 0,0 mm 8,0 km/h (2 Bft) W 270 10 min 8 UV-I 1092 W/m 17,7 km/h (3 Bft)
17.07.2010 13:20 22,4 C 60 % 1017,5 hPa 0,0 mm 6,4 km/h (2 Bft) W-SW 247 10 min 8 UV-I 1063 W/m 17,7 km/h (3 Bft)
17.07.2010 13:30 22,7 C 61 % 1017,5 hPa 0,0 mm 4,8 km/h (1 Bft) W 270 10 min 8 UV-I 926 W/m 16,1 km/h (3 Bft)
17.07.2010 13:40 23,3 C 59 % 1017,4 hPa 0,0 mm 4,8 km/h (1 Bft) W 270 10 min 8 UV-I 1041 W/m 11,3 km/h (2 Bft)
17.07.2010 13:50 23,1 C 60 % 1017,1 hPa 0,0 mm 4,8 km/h (1 Bft) W 270 10 min 7 UV-I 842 W/m 16,1 km/h (3 Bft)
17.07.2010 14:00 23,9 C 58 % 1017,2 hPa 0,0 mm 4,8 km/h (1 Bft) W 270 10 min 8 UV-I 1107 W/m 14,5 km/h (3 Bft)
17.07.2010 14:10 24,3 C 55 % 1017,1 hPa 0,0 mm 4,8 km/h (1 Bft) W-SW 247 10 min 8 UV-I 958 W/m 24,1 km/h (4 Bft)
17.07.2010 14:20 24,7 C 52 % 1017,2 hPa 0,0 mm 8,0 km/h (2 Bft) W 270 10 min 7 UV-I 949 W/m 20,9 km/h (4 Bft)
17.07.2010 14:30 25,0 C 52 % 1017,2 hPa 0,0 mm 8,0 km/h (2 Bft) W 270 10 min 7 UV-I 1021 W/m 25,7 km/h (4 Bft)
17.07.2010 14:40 24,9 C 54 % 1017,0 hPa 0,0 mm 4,8 km/h (1 Bft) W 270 10 min 7 UV-I 1025 W/m 19,3 km/h (3 Bft)
17.07.2010 14:50 24,6 C 52 % 1017,2 hPa 0,0 mm 8,0 km/h (2 Bft) W 270 10 min 7 UV-I 1030 W/m 19,3 km/h (3 Bft)
17.07.2010 15:00 24,7 C 51 % 1017,2 hPa 0,0 mm 3,2 km/h (1 Bft) W 270 10 min 7 UV-I 995 W/m 8,0 km/h (2 Bft)
17.07.2010 15:10 24,9 C 50 % 1017,2 hPa 0,0 mm 6,4 km/h (2 Bft) W 270 10 min 5 UV-I 742 W/m 16,1 km/h (3 Bft)
17.07.2010 15:20 24,7 C 49 % 1017,3 hPa 0,0 mm 8,0 km/h (2 Bft) W-SW 247 10 min 4 UV-I 573 W/m 22,5 km/h (4 Bft)
17.07.2010 15:30 24,6 C 49 % 1017,3 hPa 0,0 mm 8,0 km/h (2 Bft) W 270 10 min 5 UV-I 722 W/m 19,3 km/h (3 Bft)
17.07.2010 15:40 24,7 C 48 % 1017,3 hPa 0,0 mm 6,4 km/h (2 Bft) W 270 10 min 4 UV-I 629 W/m 20,9 km/h (4 Bft)
17.07.2010 15:50 24,3 C 49 % 1017,4 hPa 0,0 mm 6,4 km/h (2 Bft) W 270 10 min 4 UV-I 452 W/m 20,9 km/h (4 Bft)
17.07.2010 16:00 24,2 C 49 % 1017,6 hPa 0,0 mm 12,5 km/h (3 Bft) W-SW 249 0 min 3 UV-I 332 W/m 20,9 km/h (4 Bft)
17.07.2010 16:10 23,3 C 56 % 1017,8 hPa 0,0 mm 11,3 km/h (2 Bft) W 270 0 min 3 UV-I 316 W/m 30,6 km/h (5 Bft)
17.07.2010 16:20 23,2 C 57 % 1018,0 hPa 0,0 mm 8,0 km/h (2 Bft) W-NW 292 10 min 3 UV-I 686 W/m 22,5 km/h (4 Bft)
17.07.2010 16:30 23,8 C 56 % 1018,1 hPa 0,0 mm 8,0 km/h (2 Bft) W-NW 292 10 min 4 UV-I 694 W/m 22,5 km/h (4 Bft)
17.07.2010 16:40 23,9 C 56 % 1018,2 hPa 0,0 mm 9,7 km/h (2 Bft) W-SW 247 10 min 4 UV-I 719 W/m 29,0 km/h (5 Bft)
17.07.2010 16:50 23,9 C 55 % 1018,2 hPa 0,0 mm 6,4 km/h (2 Bft) W 270 10 min 3 UV-I 605 W/m 20,9 km/h (4 Bft)
17.07.2010 17:00 23,2 C 55 % 1018,2 hPa 0,0 mm 9,7 km/h (2 Bft) W 270 10 min 3 UV-I 408 W/m 20,9 km/h (4 Bft)
17.07.2010 17:10 22,8 C 57 % 1018,4 hPa 0,0 mm 6,4 km/h (2 Bft) W-NW 292 0 min 2 UV-I 288 W/m 17,7 km/h (3 Bft)
17.07.2010 17:20 22,8 C 56 % 1018,5 hPa 0,0 mm 8,0 km/h (2 Bft) W 270 10 min 2 UV-I 364 W/m 22,5 km/h (4 Bft)
17.07.2010 17:30 22,9 C 56 % 1018,4 hPa 0,0 mm 6,4 km/h (2 Bft) W 270 10 min 2 UV-I 385 W/m 17,7 km/h (3 Bft)
17.07.2010 17:40 22,9 C 54 % 1018,5 hPa 0,0 mm 8,0 km/h (2 Bft) W-NW 292 10 min 2 UV-I 390 W/m 20,9 km/h (4 Bft)
17.07.2010 17:50 22,8 C 55 % 1018,4 hPa 0,0 mm 4,8 km/h (1 Bft) W 270 10 min 2 UV-I 309 W/m 16,1 km/h (3 Bft)
17.07.2010 18:00 22,5 C 55 % 1018,4 hPa 0,0 mm 6,4 km/h (2 Bft) W 270 0 min 1 UV-I 144 W/m 17,7 km/h (3 Bft)
17.07.2010 18:10 22,3 C 55 % 1018,6 hPa 0,0 mm 6,4 km/h (2 Bft) W 270 0 min 1 UV-I 167 W/m 19,3 km/h (3 Bft)
17.07.2010 18:20 22,3 C 55 % 1018,5 hPa 0,0 mm 6,4 km/h (2 Bft) W 270 10 min 1 UV-I 267 W/m 17,7 km/h (3 Bft)
17.07.2010 18:30 22,2 C 54 % 1018,8 hPa 0,0 mm 6,4 km/h (2 Bft) W-NW 292 0 min 1 UV-I 209 W/m 22,5 km/h (4 Bft)
17.07.2010 18:40 22,0 C 53 % 1019,0 hPa 0,0 mm 8,0 km/h (2 Bft) W 270 0 min 1 UV-I 158 W/m 20,9 km/h (4 Bft)
17.07.2010 18:50 22,0 C 54 % 1019,0 hPa 0,0 mm 3,2 km/h (1 Bft) W-NW 292 0 min 1 UV-I 146 W/m 11,3 km/h (2 Bft)
17.07.2010 19:00 21,9 C 53 % 1019,0 hPa 0,0 mm 3,2 km/h (1 Bft) W 270 0 min 1 UV-I 107 W/m 11,3 km/h (2 Bft)
17.07.2010 19:10 21,8 C 52 % 1019,1 hPa 0,0 mm 4,8 km/h (1 Bft) W 270 0 min 1 UV-I 111 W/m 19,3 km/h (3 Bft)
17.07.2010 19:20 21,7 C 52 % 1019,0 hPa 0,0 mm 6,4 km/h (2 Bft) W 270 0 min 1 UV-I 102 W/m 16,1 km/h (3 Bft)
17.07.2010 19:30 21,6 C 52 % 1019,2 hPa 0,0 mm 4,8 km/h (1 Bft) W 270 0 min 1 UV-I 86 W/m 11,3 km/h (2 Bft)
17.07.2010 19:40 21,6 C 52 % 1019,4 hPa 0,0 mm 4,8 km/h (1 Bft) W 270 0 min 1 UV-I 97 W/m 11,3 km/h (2 Bft)
17.07.2010 19:50 21,6 C 53 % 1019,5 hPa 0,0 mm 3,2 km/h (1 Bft) N-NW 337 10 min 1 UV-I 213 W/m 9,7 km/h (2 Bft)
17.07.2010 20:00 21,8 C 52 % 1019,4 hPa 0,0 mm 3,2 km/h (1 Bft) W-NW 292 10 min 1 UV-I 258 W/m 8,0 km/h (2 Bft)
17.07.2010 20:10 21,8 C 51 % 1019,4 hPa 0,0 mm 4,8 km/h (1 Bft) W-NW 292 10 min 1 UV-I 209 W/m 11,3 km/h (2 Bft)
17.07.2010 20:20 21,4 C 51 % 1019,5 hPa 0,0 mm 4,8 km/h (1 Bft) W 270 10 min 1 UV-I 132 W/m 17,7 km/h (3 Bft)
17.07.2010 20:30 21,3 C 51 % 1019,7 hPa 0,0 mm 4,8 km/h (1 Bft) W 270 0 min 0 UV-I 62 W/m 16,1 km/h (3 Bft)
17.07.2010 20:40 21,1 C 51 % 1019,7 hPa 0,0 mm 4,8 km/h (1 Bft) W-NW 292 0 min 0 UV-I 51 W/m 16,1 km/h (3 Bft)
17.07.2010 20:50 20,9 C 52 % 1020,0 hPa 0,0 mm 4,8 km/h (1 Bft) W-NW 292 0 min 0 UV-I 44 W/m 14,5 km/h (3 Bft)
17.07.2010 21:00 20,7 C 53 % 1020,3 hPa 0,0 mm 3,2 km/h (1 Bft) NW 315 10 min 0 UV-I 40 W/m 12,9 km/h (3 Bft)
17.07.2010 21:10 20,4 C 51 % 1020,4 hPa 0,0 mm 4,8 km/h (1 Bft) W-NW 292 10 min 0 UV-I 33 W/m 19,3 km/h (3 Bft)
17.07.2010 21:20 20,1 C 51 % 1020,5 hPa 0,0 mm 4,8 km/h (1 Bft) W-NW 292 10 min 0 UV-I 19 W/m 17,7 km/h (3 Bft)
17.07.2010 21:30 19,7 C 52 % 1020,8 hPa 0,0 mm 3,2 km/h (1 Bft) W 270 0 min 0 UV-I 11 W/m 14,5 km/h (3 Bft)
17.07.2010 21:40 19,5 C 53 % 1021,0 hPa 0,0 mm 3,2 km/h (1 Bft) W 270 0 min 0 UV-I 5 W/m 14,5 km/h (3 Bft)
17.07.2010 21:50 19,3 C 54 % 1021,2 hPa 0,0 mm 1,6 km/h (1 Bft) W 270 0 min 0 UV-I 0 W/m 8,0 km/h (2 Bft)
17.07.2010 22:00 19,1 C 55 % 1021,4 hPa 0,0 mm 1,6 km/h (1 Bft) W 270 0 min 0 UV-I 0 W/m 9,7 km/h (2 Bft)
17.07.2010 22:10 18,9 C 56 % 1021,6 hPa 0,0 mm 1,6 km/h (1 Bft) W 270 0 min 0 UV-I 0 W/m 8,0 km/h (2 Bft)
17.07.2010 22:20 18,9 C 57 % 1021,7 hPa 0,0 mm 0,0 km/h (0 Bft) W-NW 292 0 min 0 UV-I 0 W/m 4,8 km/h (1 Bft)
17.07.2010 22:30 18,8 C 57 % 1021,8 hPa 0,0 mm 0,0 km/h (0 Bft) W-NW 292 0 min 0 UV-I 0 W/m 3,2 km/h (1 Bft)
17.07.2010 22:40 18,6 C 59 % 1021,7 hPa 0,0 mm 1,6 km/h (1 Bft) W-NW 292 0 min 0 UV-I 0 W/m 6,4 km/h (2 Bft)
17.07.2010 22:50 18,4 C 60 % 1021,8 hPa 0,0 mm 0,0 km/h (0 Bft) W-NW 292 0 min 0 UV-I 0 W/m 6,4 km/h (2 Bft)
17.07.2010 23:00 18,3 C 60 % 1021,8 hPa 0,0 mm 1,6 km/h (1 Bft) W-NW 292 0 min 0 UV-I 0 W/m 8,0 km/h (2 Bft)
17.07.2010 23:10 18,2 C 61 % 1021,9 hPa 0,0 mm 0,6 km/h (0 Bft) W 277 0 min 0 UV-I 0 W/m 1,6 km/h (1 Bft)
17.07.2010 23:20 18,1 C 62 % 1022,1 hPa 0,0 mm 0,4 km/h (0 Bft) W 277 0 min 0 UV-I 0 W/m 4,8 km/h (1 Bft)
17.07.2010 23:30 17,9 C 62 % 1022,1 hPa 0,0 mm 0,2 km/h (0 Bft) W-NW 291 0 min 0 UV-I 0 W/m 3,2 km/h (1 Bft)
17.07.2010 23:40 17,8 C 63 % 1022,3 hPa 0,0 mm 1,1 km/h (1 Bft) W 279 0 min 0 UV-I 0 W/m 6,4 km/h (2 Bft)
17.07.2010 23:50 17,8 C 63 % 1022,7 hPa 0,0 mm 1,7 km/h (1 Bft) W 268 0 min 0 UV-I 0 W/m 6,4 km/h (2 Bft)
_ Min-Zeit 05:30 15:40 00:00 - 00:00 - - - - - 04:20
Minimum _ 17,4 C 48 % 1013,5 hPa - 0,0 km/h (0 Bft) - - - - - 0,0 km/h (0 Bft)
_ Max-Zeit 14:30 05:30 23:50 00:00 16:00 - - 12:30 13:00 13:00 16:10
Maximum _ 25,2 C 86 % 1022,7 hPa 0,0 mm 12,5 km/h
W-SW (3 Bft)
- - 10 min 8 UV-I 1141 W/m 30,6 km/h
W (5 Bft)
Durchschnitt _ 20,6 C 68 % 1017,6 hPa #0,0 mm 3,2 km/h (1 Bft) W - #6:10 h 3 UV-I 329 W/m 11,0 km/h (2 Bft)